星链-32111 (STARLINK-32111 )

导读 | 豆包AI

STARLINK-32111是美国星链计划的卫星,于2024年6月19日发射。作为星链卫星互联网项目的一员,它依托SpaceX的可重复使用火箭技术入轨,旨在为全球提供低延迟、高速率的宽带互联网服务,尤其覆盖偏远、网络基础设施薄弱区域。该卫星运行在近地轨道,是星链大规模星座组网建设中的组成部分,进一步扩充了星链系统的服务覆盖范围与容量。

基本信息
目录编号:
60073
目录名称:
STARLINK-32111
国际标识:
2024-113Q
轨道中心:
EARTH
卫星名称:
星链-32111
卫星全名:
星链-32111 (STARLINK-32111 )
卫星状态:
已陨落 最后检测时间 2024-07-13
发射日期:
2024-06-19 UTC
国别 :
美国 (US)
星等 :
--
轨道信息
数据来源 国际轨道数据
星历时间: 2024-07-13T12:12:00+0800
轨道信息已过期610天
半长轴: 6537.833km
偏心率: 0.0008547
轨道倾角: 53.145°
近地点辐角 326.246°
升交点赤经 289.644°
平近点角 135.819°
近地点: 154.11km
远地点: 165.286km
周期: 87.682分钟
每日圈数: 16.422985
详细信息
固有亮度:
5
最大亮度:
1.5
卫星平台:
Starlink v2.0 mini
覆盖范围:
全球
运营商:
太空探索技术公司
运营商所在国:
美国
制造商(研发单位):
太空探索技术公司
制造商所在国:
美国
使用方式:
暂无
卫星简介
星链(Starlink)计划是由太空探索技术公司(SpaceX)提出的一个巨型低轨卫星互联网星座项目,计划在2019年至2024年间在太空搭建由约1.2万颗卫星组成的“星链”网络,其中1584颗将部署在地球上空550千米处的近地轨道,并从2020年开始工作。该卫星仍在工作。